Time,TemperatureF,DewpointF,PressureIn,WindDirection,WindDirectionDegrees,WindSpeedMPH,WindSpeedGustMPH,Humidity,HourlyPrecipIn,Conditions,Clouds,dailyrainin,SoftwareType,DateUTC
2013-02-05 00:02:00,13.1,8.4,29.98,NE,36,3.0,4.0,81,0.00,,,0.00,Wunderground v.1.15,2013-02-05 06:02:00,
2013-02-05 00:08:00,13.1,8.4,29.97,NE,47,4.0,4.0,81,0.00,,,0.00,Wunderground v.1.15,2013-02-05 06:08:00,
2013-02-05 00:14:00,13.1,8.4,29.97,NE,53,4.0,5.0,81,0.00,,,0.00,Wunderground v.1.15,2013-02-05 06:14:00,
2013-02-05 00:20:00,13.0,8.0,29.97,ENE,61,4.0,5.0,80,0.00,,,0.00,Wunderground v.1.15,2013-02-05 06:20:00,
2013-02-05 00:26:00,13.0,8.3,29.96,ENE,61,3.0,4.0,81,0.00,,,0.00,Wunderground v.1.15,2013-02-05 06:26:00,
2013-02-05 00:32:00,13.0,8.0,29.96,ENE,61,2.0,2.0,80,0.00,,,0.00,Wunderground v.1.15,2013-02-05 06:32:00,
2013-02-05 00:38:00,13.0,8.3,29.96,ENE,61,1.0,2.0,81,0.00,,,0.00,Wunderground v.1.15,2013-02-05 06:38:00,
2013-02-05 00:44:00,13.0,8.3,29.96,ENE,61,0.0,0.0,81,0.00,,,0.00,Wunderground v.1.15,2013-02-05 06:44:00,
2013-02-05 00:50:00,13.0,8.0,29.96,ENE,61,0.0,1.0,80,0.00,,,0.00,Wunderground v.1.15,2013-02-05 06:50:00,
2013-02-05 00:56:00,13.2,7.9,29.96,ENE,61,0.0,0.0,79,0.00,,,0.00,Wunderground v.1.15,2013-02-05 06:56:00,
2013-02-05 01:02:00,13.2,7.9,29.97,ENE,61,0.0,0.0,79,0.00,,,0.00,Wunderground v.1.15,2013-02-05 07:02:00,
2013-02-05 01:08:00,13.3,8.0,29.96,ENE,61,0.0,1.0,79,0.00,,,0.00,Wunderground v.1.15,2013-02-05 07:08:00,
2013-02-05 01:14:00,13.4,7.8,29.96,ENE,61,1.0,1.0,78,0.00,,,0.00,Wunderground v.1.15,2013-02-05 07:14:00,
2013-02-05 01:20:00,13.4,8.1,29.96,ENE,61,1.0,1.0,79,0.00,,,0.00,Wunderground v.1.15,2013-02-05 07:20:00,
2013-02-05 01:26:00,13.4,8.1,29.96,ENE,61,1.0,2.0,79,0.00,,,0.00,Wunderground v.1.15,2013-02-05 07:26:00,
2013-02-05 01:32:00,13.3,8.0,29.97,ENE,61,1.0,1.0,79,0.00,,,0.00,Wunderground v.1.15,2013-02-05 07:32:00,
2013-02-05 01:38:00,13.2,7.9,29.97,ENE,61,0.0,1.0,79,0.00,,,0.00,Wunderground v.1.15,2013-02-05 07:38:00,
2013-02-05 01:44:00,13.1,7.8,29.97,ENE,61,1.0,3.0,79,0.00,,,0.00,Wunderground v.1.15,2013-02-05 07:44:00,
2013-02-05 01:50:00,13.0,7.7,29.96,ENE,61,1.0,1.0,79,0.00,,,0.00,Wunderground v.1.15,2013-02-05 07:50:00,
2013-02-05 01:56:00,12.9,7.6,29.96,ENE,61,0.0,1.0,79,0.00,,,0.00,Wunderground v.1.15,2013-02-05 07:56:00,
2013-02-05 02:02:00,12.8,7.8,29.95,ENE,61,0.0,0.0,80,0.00,,,0.00,Wunderground v.1.15,2013-02-05 08:02:00,
2013-02-05 02:08:00,12.7,8.0,29.95,ENE,61,0.0,0.0,81,0.00,,,0.00,Wunderground v.1.15,2013-02-05 08:08:00,
2013-02-05 02:14:00,12.6,7.9,29.95,ENE,61,0.0,0.0,81,0.00,,,0.00,Wunderground v.1.15,2013-02-05 08:14:00,
2013-02-05 02:20:00,12.4,8.0,29.95,ENE,61,0.0,0.0,82,0.00,,,0.00,Wunderground v.1.15,2013-02-05 08:20:00,
2013-02-05 02:26:00,12.2,7.8,29.95,ENE,61,0.0,0.0,82,0.00,,,0.00,Wunderground v.1.15,2013-02-05 08:26:00,
2013-02-05 02:32:00,12.1,7.7,29.94,ENE,61,0.0,0.0,82,0.00,,,0.00,Wunderground v.1.15,2013-02-05 08:32:00,
2013-02-05 02:38:00,11.8,7.6,29.93,ENE,61,0.0,0.0,83,0.00,,,0.00,Wunderground v.1.15,2013-02-05 08:38:00,
2013-02-05 02:44:00,11.5,7.6,29.93,ENE,61,0.0,0.0,84,0.00,,,0.00,Wunderground v.1.15,2013-02-05 08:44:00,
2013-02-05 02:50:00,11.5,7.6,29.94,ENE,61,0.0,0.0,84,0.00,,,0.00,Wunderground v.1.15,2013-02-05 08:50:00,
2013-02-05 02:56:00,11.3,7.7,29.94,ENE,61,0.0,0.0,85,0.00,,,0.00,Wunderground v.1.15,2013-02-05 08:56:00,
2013-02-05 03:02:00,11.2,7.8,29.94,ENE,61,0.0,0.0,86,0.00,,,0.00,Wunderground v.1.15,2013-02-05 09:02:00,
2013-02-05 03:08:00,11.1,7.7,29.93,ENE,61,0.0,0.0,86,0.00,,,0.00,Wunderground v.1.15,2013-02-05 09:08:00,
2013-02-05 03:14:00,11.0,7.6,29.93,ENE,61,0.0,0.0,86,0.00,,,0.00,Wunderground v.1.15,2013-02-05 09:14:00,
2013-02-05 03:20:00,11.0,7.6,29.93,ENE,61,0.0,0.0,86,0.00,,,0.00,Wunderground v.1.15,2013-02-05 09:20:00,
2013-02-05 03:26:00,11.0,7.6,29.94,ENE,61,0.0,0.0,86,0.00,,,0.00,Wunderground v.1.15,2013-02-05 09:26:00,
2013-02-05 03:32:00,10.8,7.4,29.94,ENE,61,0.0,0.0,86,0.00,,,0.00,Wunderground v.1.15,2013-02-05 09:32:00,
2013-02-05 03:38:00,10.7,7.3,29.94,ENE,61,0.0,0.0,86,0.00,,,0.00,Wunderground v.1.15,2013-02-05 09:38:00,
2013-02-05 03:44:00,10.7,7.6,29.93,ENE,61,0.0,0.0,87,0.00,,,0.00,Wunderground v.1.15,2013-02-05 09:44:00,
2013-02-05 03:50:00,10.7,7.6,29.94,ENE,61,0.0,0.0,87,0.00,,,0.00,Wunderground v.1.15,2013-02-05 09:50:00,
2013-02-05 03:56:00,11.0,8.1,29.94,ENE,61,0.0,0.0,88,0.00,,,0.00,Wunderground v.1.15,2013-02-05 09:56:00,
2013-02-05 04:02:00,11.3,8.4,29.93,ENE,61,0.0,0.0,88,0.00,,,0.00,Wunderground v.1.15,2013-02-05 10:02:00,
2013-02-05 04:08:00,12.0,9.4,29.93,SSW,212,1.0,3.0,89,0.00,,,0.00,Wunderground v.1.15,2013-02-05 10:08:00,
2013-02-05 04:14:00,12.8,9.9,29.93,SSW,209,2.0,3.0,88,0.00,,,0.00,Wunderground v.1.15,2013-02-05 10:14:00,
2013-02-05 04:20:00,13.3,10.2,29.93,SSW,209,2.0,3.0,87,0.00,,,0.00,Wunderground v.1.15,2013-02-05 10:20:00,
2013-02-05 04:26:00,13.8,10.6,29.93,SSW,209,1.0,2.0,87,0.00,,,0.00,Wunderground v.1.15,2013-02-05 10:26:00,
2013-02-05 04:32:00,14.2,11.0,29.93,SSW,209,1.0,1.0,87,0.00,,,0.00,Wunderground v.1.15,2013-02-05 10:32:00,
2013-02-05 04:38:00,14.6,11.4,29.94,SW,214,2.0,3.0,87,0.00,,,0.00,Wunderground v.1.15,2013-02-05 10:38:00,
2013-02-05 04:44:00,14.9,11.5,29.93,SSW,203,3.0,3.0,86,0.00,,,0.00,Wunderground v.1.15,2013-02-05 10:44:00,
2013-02-05 04:50:00,15.2,11.8,29.93,SSW,204,2.0,3.0,86,0.00,,,0.00,Wunderground v.1.15,2013-02-05 10:50:00,
2013-02-05 04:56:00,15.4,12.0,29.93,SSW,213,2.0,2.0,86,0.00,,,0.00,Wunderground v.1.15,2013-02-05 10:56:00,
2013-02-05 05:02:00,15.7,12.3,29.93,SSW,213,2.0,2.0,86,0.00,,,0.00,Wunderground v.1.15,2013-02-05 11:02:00,
2013-02-05 05:08:00,15.9,12.5,29.94,SW,224,2.0,4.0,86,0.00,,,0.00,Wunderground v.1.15,2013-02-05 11:08:00,
2013-02-05 05:14:00,16.1,12.7,29.94,SW,229,3.0,3.0,86,0.00,,,0.00,Wunderground v.1.15,2013-02-05 11:14:00,
2013-02-05 05:20:00,16.4,12.9,29.93,SW,228,3.0,4.0,86,0.00,,,0.00,Wunderground v.1.15,2013-02-05 11:20:00,
2013-02-05 05:26:00,16.5,13.0,29.94,SW,233,4.0,6.0,86,0.00,,,0.00,Wunderground v.1.15,2013-02-05 11:26:00,
2013-02-05 05:32:00,16.7,13.2,29.94,WSW,249,4.0,4.0,86,0.00,,,0.00,Wunderground v.1.15,2013-02-05 11:32:00,
2013-02-05 05:38:00,16.7,13.2,29.93,WSW,242,3.0,5.0,86,0.00,,,0.00,Wunderground v.1.15,2013-02-05 11:38:00,
2013-02-05 05:44:00,16.8,13.6,29.93,SW,236,3.0,4.0,87,0.00,,,0.00,Wunderground v.1.15,2013-02-05 11:44:00,
2013-02-05 05:50:00,16.9,13.7,29.92,SW,236,2.0,2.0,87,0.00,,,0.00,Wunderground v.1.15,2013-02-05 11:50:00,
2013-02-05 05:56:00,17.1,13.9,29.92,SW,235,2.0,2.0,87,0.00,,,0.00,Wunderground v.1.15,2013-02-05 11:56:00,
2013-02-05 06:02:00,17.2,14.0,29.92,SW,233,2.0,4.0,87,0.00,,,0.00,Wunderground v.1.15,2013-02-05 12:02:00,
2013-02-05 06:08:00,17.3,14.1,29.92,SW,233,1.0,4.0,87,0.00,,,0.00,Wunderground v.1.15,2013-02-05 12:08:00,
2013-02-05 06:14:00,17.4,14.5,29.91,SW,233,1.0,1.0,88,0.00,,,0.00,Wunderground v.1.15,2013-02-05 12:14:00,
2013-02-05 06:20:00,17.5,14.6,29.89,South,184,1.0,2.0,88,0.00,,,0.00,Wunderground v.1.15,2013-02-05 12:20:00,
2013-02-05 06:26:00,17.6,14.7,29.90,South,179,2.0,2.0,88,0.00,,,0.00,Wunderground v.1.15,2013-02-05 12:26:00,
2013-02-05 06:32:00,17.7,14.8,29.91,South,179,1.0,1.0,88,0.00,,,0.00,Wunderground v.1.15,2013-02-05 12:32:00,
2013-02-05 06:38:00,18.0,15.3,29.91,South,179,0.0,1.0,89,0.00,,,0.00,Wunderground v.1.15,2013-02-05 12:38:00,
2013-02-05 06:44:00,18.2,15.2,29.91,South,179,0.0,0.0,88,0.00,,,0.00,Wunderground v.1.15,2013-02-05 12:44:00,
2013-02-05 06:50:00,18.3,15.3,29.91,South,179,1.0,1.0,88,0.00,,,0.00,Wunderground v.1.15,2013-02-05 12:50:00,
2013-02-05 06:56:00,18.4,15.4,29.90,South,179,2.0,3.0,88,0.00,,,0.00,Wunderground v.1.15,2013-02-05 12:56:00,
2013-02-05 07:02:00,18.5,15.5,29.90,South,174,3.0,3.0,88,0.00,,,0.00,Wunderground v.1.15,2013-02-05 13:02:00,
2013-02-05 07:08:00,18.7,15.7,29.90,SSE,167,3.0,4.0,88,0.00,,,0.00,Wunderground v.1.15,2013-02-05 13:08:00,
2013-02-05 07:14:00,18.8,15.8,29.89,South,178,3.0,5.0,88,0.00,,,0.00,Wunderground v.1.15,2013-02-05 13:14:00,
2013-02-05 07:20:00,19.0,16.3,29.90,SSE,167,3.0,5.0,89,0.00,,,0.00,Wunderground v.1.15,2013-02-05 13:20:00,
2013-02-05 07:26:00,19.2,16.5,29.91,SSW,198,2.0,3.0,89,0.00,,,0.00,Wunderground v.1.15,2013-02-05 13:26:00,
2013-02-05 07:32:00,19.5,16.8,29.91,South,188,2.0,2.0,89,0.00,,,0.00,Wunderground v.1.15,2013-02-05 13:32:00,
2013-02-05 07:38:00,19.8,17.1,29.91,SSW,200,2.0,3.0,89,0.00,,,0.00,Wunderground v.1.15,2013-02-05 13:38:00,
2013-02-05 07:44:00,20.0,17.3,29.91,SW,214,2.0,2.0,89,0.00,,,0.00,Wunderground v.1.15,2013-02-05 13:44:00,
2013-02-05 07:50:00,20.3,17.6,29.91,SSW,203,2.0,3.0,89,0.00,,,0.00,Wunderground v.1.15,2013-02-05 13:50:00,
2013-02-05 07:56:00,20.7,18.0,29.91,SSW,210,2.0,2.0,89,0.00,,,0.00,Wunderground v.1.15,2013-02-05 13:56:00,
2013-02-05 08:02:00,20.9,18.2,29.91,SSW,200,2.0,3.0,89,0.00,,,0.00,Wunderground v.1.15,2013-02-05 14:02:00,
2013-02-05 08:08:00,21.3,18.6,29.90,SSW,199,2.0,3.0,89,0.00,,,0.00,Wunderground v.1.15,2013-02-05 14:08:00,
2013-02-05 08:14:00,21.6,18.9,29.89,SSW,194,2.0,2.0,89,0.00,,,0.00,Wunderground v.1.15,2013-02-05 14:14:00,
2013-02-05 08:20:00,21.8,19.1,29.88,South,184,3.0,6.0,89,0.00,,,0.00,Wunderground v.1.15,2013-02-05 14:20:00,
2013-02-05 08:26:00,22.1,19.4,29.88,South,190,3.0,3.0,89,0.00,,,0.00,Wunderground v.1.15,2013-02-05 14:26:00,
2013-02-05 08:32:00,22.7,19.9,29.88,SSW,195,3.0,4.0,89,0.00,,,0.00,Wunderground v.1.15,2013-02-05 14:32:00,
2013-02-05 08:38:00,23.2,20.4,29.88,SSW,196,3.0,4.0,89,0.00,,,0.00,Wunderground v.1.15,2013-02-05 14:38:00,
2013-02-05 08:44:00,23.3,20.3,29.88,SSW,205,3.0,6.0,88,0.00,,,0.00,Wunderground v.1.15,2013-02-05 14:44:00,
2013-02-05 08:50:00,23.3,20.3,29.88,SSW,202,4.0,6.0,88,0.00,,,0.00,Wunderground v.1.15,2013-02-05 14:50:00,
2013-02-05 08:56:00,23.5,20.5,29.87,SSW,209,5.0,5.0,88,0.00,,,0.00,Wunderground v.1.15,2013-02-05 14:56:00,
2013-02-05 09:02:00,23.7,20.7,29.87,SW,226,5.0,9.0,88,0.00,,,0.00,Wunderground v.1.15,2013-02-05 15:02:00,
2013-02-05 09:08:00,24.2,21.2,29.87,SSW,203,6.0,9.0,88,0.00,,,0.00,Wunderground v.1.15,2013-02-05 15:08:00,
2013-02-05 09:14:00,24.5,21.7,29.87,SW,215,6.0,6.0,89,0.00,,,0.00,Wunderground v.1.15,2013-02-05 15:14:00,
2013-02-05 09:20:00,25.0,22.2,29.87,SW,215,6.0,6.0,89,0.00,,,0.00,Wunderground v.1.15,2013-02-05 15:20:00,
2013-02-05 09:26:00,25.5,22.4,29.86,SW,219,6.0,8.0,88,0.00,,,0.00,Wunderground v.1.15,2013-02-05 15:26:00,
2013-02-05 09:32:00,25.8,22.7,29.86,SSW,200,7.0,11.0,88,0.00,,,0.00,Wunderground v.1.15,2013-02-05 15:32:00,
2013-02-05 09:38:00,26.1,23.0,29.86,South,178,8.0,11.0,88,0.00,,,0.00,Wunderground v.1.15,2013-02-05 15:38:00,
2013-02-05 09:44:00,26.5,23.4,29.87,SW,223,8.0,8.0,88,0.00,,,0.00,Wunderground v.1.15,2013-02-05 15:44:00,
2013-02-05 09:50:00,26.8,23.4,29.86,SSW,198,8.0,8.0,87,0.00,,,0.00,Wunderground v.1.15,2013-02-05 15:50:00,
2013-02-05 09:56:00,27.0,23.6,29.86,SSW,208,8.0,9.0,87,0.00,,,0.00,Wunderground v.1.15,2013-02-05 15:56:00,
2013-02-05 10:02:00,27.4,24.0,29.86,SW,217,9.0,12.0,87,0.00,,,0.00,Wunderground v.1.15,2013-02-05 16:02:00,
2013-02-05 10:08:00,27.6,24.2,29.86,SSW,204,9.0,12.0,87,0.00,,,0.00,Wunderground v.1.15,2013-02-05 16:08:00,
2013-02-05 10:14:00,27.9,24.5,29.86,SW,229,8.0,16.0,87,0.00,,,0.00,Wunderground v.1.15,2013-02-05 16:14:00,
2013-02-05 10:20:00,28.0,24.4,29.85,SW,216,8.0,10.0,86,0.00,,,0.00,Wunderground v.1.15,2013-02-05 16:20:00,
2013-02-05 10:26:00,28.1,24.5,29.85,SW,229,9.0,10.0,86,0.00,,,0.00,Wunderground v.1.15,2013-02-05 16:26:00,
2013-02-05 10:32:00,28.5,24.8,29.86,SW,233,9.0,10.0,86,0.00,,,0.00,Wunderground v.1.15,2013-02-05 16:32:00,
2013-02-05 10:38:00,28.7,25.0,29.86,WSW,246,10.0,12.0,86,0.00,,,0.00,Wunderground v.1.15,2013-02-05 16:38:00,
2013-02-05 10:44:00,29.0,25.3,29.86,SW,217,9.0,11.0,86,0.00,,,0.00,Wunderground v.1.15,2013-02-05 16:44:00,
2013-02-05 10:50:00,29.2,25.5,29.86,SW,227,9.0,10.0,86,0.00,,,0.00,Wunderground v.1.15,2013-02-05 16:50:00,
2013-02-05 10:56:00,30.2,26.2,29.85,WSW,240,9.0,11.0,85,0.00,,,0.00,Wunderground v.1.15,2013-02-05 16:56:00,
2013-02-05 11:02:00,30.8,26.8,29.85,WSW,244,9.0,9.0,85,0.00,,,0.00,Wunderground v.1.15,2013-02-05 17:02:00,
2013-02-05 11:08:00,32.0,27.7,29.85,SSW,211,9.0,9.0,84,0.00,,,0.00,Wunderground v.1.15,2013-02-05 17:08:00,
2013-02-05 11:14:00,31.6,26.7,29.85,SW,234,9.0,10.0,82,0.00,,,0.00,Wunderground v.1.15,2013-02-05 17:14:00,
2013-02-05 11:20:00,31.4,26.2,29.85,SW,225,9.0,10.0,81,0.00,,,0.00,Wunderground v.1.15,2013-02-05 17:20:00,
2013-02-05 11:26:00,31.6,26.7,29.84,WSW,237,9.0,10.0,82,0.00,,,0.00,Wunderground v.1.15,2013-02-05 17:26:00,
2013-02-05 11:32:00,31.6,26.4,29.84,WSW,250,9.0,12.0,81,0.00,,,0.00,Wunderground v.1.15,2013-02-05 17:32:00,
2013-02-05 11:38:00,31.5,26.6,29.84,SW,229,10.0,12.0,82,0.00,,,0.01,Wunderground v.1.15,2013-02-05 17:38:00,
2013-02-05 11:44:00,31.2,26.0,29.84,SW,229,10.0,11.0,81,0.00,,,0.01,Wunderground v.1.15,2013-02-05 17:44:00,
2013-02-05 11:50:00,31.1,26.2,29.85,WSW,250,11.0,12.0,82,0.00,,,0.01,Wunderground v.1.15,2013-02-05 17:50:00,
2013-02-05 11:56:00,31.2,26.6,29.84,WSW,253,10.0,11.0,83,0.00,,,0.01,Wunderground v.1.15,2013-02-05 17:56:00,
2013-02-05 12:02:00,31.3,26.7,29.84,WSW,239,10.0,11.0,83,0.00,,,0.01,Wunderground v.1.15,2013-02-05 18:02:00,
2013-02-05 12:08:00,31.4,26.5,29.84,SW,227,11.0,12.0,82,0.00,,,0.01,Wunderground v.1.15,2013-02-05 18:08:00,
2013-02-05 12:14:00,31.5,26.9,29.84,WSW,240,11.0,14.0,83,0.00,,,0.01,Wunderground v.1.15,2013-02-05 18:14:00,
2013-02-05 12:20:00,31.5,26.9,29.84,WSW,258,10.0,11.0,83,0.00,,,0.01,Wunderground v.1.15,2013-02-05 18:20:00,
2013-02-05 12:26:00,31.4,26.8,29.83,WSW,238,10.0,11.0,83,0.00,,,0.01,Wunderground v.1.15,2013-02-05 18:26:00,
2013-02-05 12:32:00,31.5,26.6,29.83,West,270,11.0,15.0,82,0.00,,,0.01,Wunderground v.1.15,2013-02-05 18:32:00,
2013-02-05 12:38:00,31.6,27.0,29.83,WSW,241,12.0,15.0,83,0.00,,,0.01,Wunderground v.1.15,2013-02-05 18:38:00,
2013-02-05 12:44:00,31.5,26.9,29.83,West,266,12.0,16.0,83,0.00,,,0.01,Wunderground v.1.15,2013-02-05 18:44:00,
2013-02-05 12:50:00,31.5,26.9,29.83,WSW,256,12.0,12.0,83,0.00,,,0.01,Wunderground v.1.15,2013-02-05 18:50:00,
2013-02-05 12:56:00,31.9,27.6,29.82,WSW,238,11.0,12.0,84,0.00,,,0.01,Wunderground v.1.15,2013-02-05 18:56:00,
2013-02-05 13:02:00,32.1,27.8,29.84,SW,224,10.0,10.0,84,0.00,,,0.01,Wunderground v.1.15,2013-02-05 19:02:00,
2013-02-05 13:08:00,31.9,27.6,29.84,West,262,10.0,13.0,84,0.00,,,0.01,Wunderground v.1.15,2013-02-05 19:08:00,
2013-02-05 13:14:00,31.8,27.5,29.83,SW,234,11.0,13.0,84,0.00,,,0.01,Wunderground v.1.15,2013-02-05 19:14:00,
2013-02-05 13:20:00,31.9,27.6,29.83,West,265,11.0,13.0,84,0.00,,,0.01,Wunderground v.1.15,2013-02-05 19:20:00,
2013-02-05 13:26:00,32.0,27.7,29.83,West,261,10.0,12.0,84,0.00,,,0.01,Wunderground v.1.15,2013-02-05 19:26:00,
2013-02-05 13:32:00,32.2,27.9,29.84,WSW,257,10.0,10.0,84,0.00,,,0.01,Wunderground v.1.15,2013-02-05 19:32:00,
2013-02-05 13:38:00,32.2,27.9,29.83,WSW,250,12.0,14.0,84,0.00,,,0.01,Wunderground v.1.15,2013-02-05 19:38:00,
2013-02-05 13:44:00,32.5,28.5,29.83,WNW,282,11.0,13.0,85,0.00,,,0.01,Wunderground v.1.15,2013-02-05 19:44:00,
2013-02-05 13:50:00,32.6,28.3,29.83,WSW,258,11.0,13.0,84,0.00,,,0.01,Wunderground v.1.15,2013-02-05 19:50:00,
2013-02-05 13:56:00,32.6,28.3,29.84,WSW,257,11.0,14.0,84,0.00,,,0.01,Wunderground v.1.15,2013-02-05 19:56:00,
2013-02-05 14:02:00,32.7,28.4,29.84,WNW,291,11.0,12.0,84,0.00,,,0.01,Wunderground v.1.15,2013-02-05 20:02:00,
2013-02-05 14:08:00,32.8,28.2,29.84,West,279,12.0,13.0,83,0.00,,,0.01,Wunderground v.1.15,2013-02-05 20:08:00,
2013-02-05 14:14:00,32.8,28.2,29.84,West,271,12.0,18.0,83,0.00,,,0.01,Wunderground v.1.15,2013-02-05 20:14:00,
2013-02-05 14:20:00,32.6,28.0,29.84,West,269,12.0,17.0,83,0.00,,,0.01,Wunderground v.1.15,2013-02-05 20:20:00,
2013-02-05 14:26:00,32.6,28.3,29.85,West,279,13.0,17.0,84,0.00,,,0.01,Wunderground v.1.15,2013-02-05 20:26:00,
2013-02-05 14:32:00,32.5,27.9,29.85,West,277,14.0,15.0,83,0.00,,,0.01,Wunderground v.1.15,2013-02-05 20:32:00,
2013-02-05 14:38:00,32.4,27.8,29.86,WNW,292,14.0,18.0,83,0.00,,,0.01,Wunderground v.1.15,2013-02-05 20:38:00,
2013-02-05 14:44:00,32.3,27.7,29.85,West,269,14.0,14.0,83,0.00,,,0.01,Wunderground v.1.15,2013-02-05 20:44:00,
2013-02-05 14:50:00,32.3,27.7,29.86,WNW,282,13.0,14.0,83,0.00,,,0.01,Wunderground v.1.15,2013-02-05 20:50:00,
2013-02-05 14:56:00,32.4,28.1,29.86,West,275,12.0,18.0,84,0.00,,,0.01,Wunderground v.1.15,2013-02-05 20:56:00,
2013-02-05 15:02:00,32.5,27.9,29.86,West,263,12.0,12.0,83,0.00,,,0.01,Wunderground v.1.15,2013-02-05 21:02:00,
2013-02-05 15:08:00,32.7,28.4,29.86,WNW,288,11.0,16.0,84,0.00,,,0.01,Wunderground v.1.15,2013-02-05 21:08:00,
2013-02-05 15:14:00,32.5,27.9,29.87,WNW,282,12.0,13.0,83,0.00,,,0.01,Wunderground v.1.15,2013-02-05 21:14:00,
2013-02-05 15:20:00,32.1,28.1,29.87,West,281,12.0,14.0,85,0.00,,,0.01,Wunderground v.1.15,2013-02-05 21:20:00,
2013-02-05 15:26:00,31.2,28.6,29.88,West,280,12.0,16.0,90,0.00,,,0.01,Wunderground v.1.15,2013-02-05 21:26:00,
2013-02-05 15:32:00,30.7,28.7,29.89,West,280,13.0,13.0,92,0.00,,,0.01,Wunderground v.1.15,2013-02-05 21:32:00,
2013-02-05 15:38:00,30.8,29.0,29.89,West,269,13.0,14.0,93,0.00,,,0.01,Wunderground v.1.15,2013-02-05 21:38:00,
2013-02-05 15:44:00,30.8,29.0,29.89,WNW,290,11.0,12.0,93,0.00,,,0.01,Wunderground v.1.15,2013-02-05 21:44:00,
2013-02-05 15:50:00,30.8,29.0,29.90,WNW,289,11.0,15.0,93,0.00,,,0.01,Wunderground v.1.15,2013-02-05 21:50:00,
2013-02-05 15:56:00,30.8,29.0,29.90,WNW,294,11.0,13.0,93,0.00,,,0.01,Wunderground v.1.15,2013-02-05 21:56:00,
2013-02-05 16:02:00,30.9,29.1,29.90,WNW,284,10.0,13.0,93,0.00,,,0.01,Wunderground v.1.15,2013-02-05 22:02:00,
2013-02-05 16:08:00,31.0,29.2,29.90,West,274,9.0,13.0,93,0.00,,,0.01,Wunderground v.1.15,2013-02-05 22:08:00,
2013-02-05 16:14:00,31.0,28.9,29.90,WNW,286,10.0,11.0,92,0.00,,,0.01,Wunderground v.1.15,2013-02-05 22:14:00,
2013-02-05 16:20:00,31.0,28.9,29.90,WNW,296,11.0,11.0,92,0.00,,,0.01,Wunderground v.1.15,2013-02-05 22:20:00,
2013-02-05 16:26:00,31.1,28.8,29.91,WNW,294,12.0,13.0,91,0.00,,,0.01,Wunderground v.1.15,2013-02-05 22:26:00,
2013-02-05 16:32:00,31.1,28.5,29.91,WNW,289,11.0,13.0,90,0.00,,,0.01,Wunderground v.1.15,2013-02-05 22:32:00,
2013-02-05 16:38:00,31.0,28.4,29.92,WNW,292,11.0,14.0,90,0.00,,,0.01,Wunderground v.1.15,2013-02-05 22:38:00,
2013-02-05 16:44:00,31.0,28.1,29.92,WNW,291,12.0,15.0,89,0.00,,,0.01,Wunderground v.1.15,2013-02-05 22:44:00,
2013-02-05 16:50:00,30.9,28.0,29.93,WNW,300,12.0,15.0,89,0.00,,,0.01,Wunderground v.1.15,2013-02-05 22:50:00,
2013-02-05 16:56:00,30.9,28.0,29.93,WNW,292,13.0,15.0,89,0.00,,,0.01,Wunderground v.1.15,2013-02-05 22:56:00,
2013-02-05 17:02:00,30.9,28.0,29.93,WNW,292,12.0,12.0,89,0.00,,,0.01,Wunderground v.1.15,2013-02-05 23:02:00,
2013-02-05 17:08:00,30.8,27.9,29.94,WNW,292,12.0,16.0,89,0.00,,,0.01,Wunderground v.1.15,2013-02-05 23:08:00,
2013-02-05 17:14:00,30.8,27.7,29.95,WNW,290,13.0,15.0,88,0.00,,,0.01,Wunderground v.1.15,2013-02-05 23:14:00,
2013-02-05 17:20:00,30.6,27.5,29.95,WNW,283,14.0,15.0,88,0.00,,,0.01,Wunderground v.1.15,2013-02-05 23:20:00,
2013-02-05 17:26:00,30.6,27.2,29.95,WNW,298,14.0,17.0,87,0.00,,,0.01,Wunderground v.1.15,2013-02-05 23:26:00,
2013-02-05 17:32:00,30.5,27.4,29.96,WNW,289,13.0,13.0,88,0.00,,,0.01,Wunderground v.1.15,2013-02-05 23:32:00,
2013-02-05 17:38:00,30.4,27.3,29.96,WNW,285,11.0,14.0,88,0.00,,,0.01,Wunderground v.1.15,2013-02-05 23:38:00,
2013-02-05 17:44:00,30.2,27.1,29.96,WNW,292,11.0,12.0,88,0.00,,,0.01,Wunderground v.1.15,2013-02-05 23:44:00,
2013-02-05 17:50:00,30.2,26.8,29.97,NNW,327,11.0,14.0,87,0.00,,,0.01,Wunderground v.1.15,2013-02-05 23:50:00,
2013-02-05 17:56:00,30.1,26.7,29.97,NNW,340,9.0,11.0,87,0.00,,,0.01,Wunderground v.1.15,2013-02-05 23:56:00,
2013-02-05 18:02:00,30.0,26.3,29.97,West,273,8.0,10.0,86,0.00,,,0.01,Wunderground v.1.15,2013-02-06 00:02:00,
2013-02-05 18:08:00,29.9,26.2,29.98,NW,315,8.0,13.0,86,0.00,,,0.01,Wunderground v.1.15,2013-02-06 00:08:00,
2013-02-05 18:14:00,29.9,26.5,29.98,NW,315,7.0,8.0,87,0.00,,,0.01,Wunderground v.1.15,2013-02-06 00:14:00,
2013-02-05 18:20:00,29.8,26.1,29.99,North,5,6.0,6.0,86,0.00,,,0.01,Wunderground v.1.15,2013-02-06 00:20:00,
2013-02-05 18:26:00,29.8,25.8,29.99,NW,323,7.0,13.0,85,0.00,,,0.01,Wunderground v.1.15,2013-02-06 00:26:00,
2013-02-05 18:32:00,29.9,25.9,29.99,WNW,284,9.0,12.0,85,0.00,,,0.01,Wunderground v.1.15,2013-02-06 00:32:00,
2013-02-05 18:38:00,29.9,25.9,30.00,WNW,297,9.0,12.0,85,0.00,,,0.01,Wunderground v.1.15,2013-02-06 00:38:00,
2013-02-05 18:44:00,29.8,25.8,30.00,West,267,8.0,11.0,85,0.00,,,0.01,Wunderground v.1.15,2013-02-06 00:44:00,
2013-02-05 18:50:00,29.8,25.8,30.00,WNW,288,7.0,9.0,85,0.00,,,0.01,Wunderground v.1.15,2013-02-06 00:50:00,
2013-02-05 18:56:00,29.8,25.6,30.00,WNW,286,6.0,9.0,84,0.00,,,0.01,Wunderground v.1.15,2013-02-06 00:56:00,
2013-02-05 19:02:00,29.8,25.8,30.00,North,355,5.0,6.0,85,0.00,,,0.01,Wunderground v.1.15,2013-02-06 01:02:00,
2013-02-05 19:08:00,29.8,25.8,30.00,NW,321,4.0,6.0,85,0.00,,,0.01,Wunderground v.1.15,2013-02-06 01:08:00,
2013-02-05 19:14:00,29.7,26.0,30.01,WNW,287,3.0,5.0,86,0.00,,,0.01,Wunderground v.1.15,2013-02-06 01:14:00,
2013-02-05 19:20:00,29.7,26.0,30.01,NW,306,4.0,5.0,86,0.00,,,0.01,Wunderground v.1.15,2013-02-06 01:20:00,
2013-02-05 19:26:00,29.7,26.0,30.02,WNW,302,4.0,4.0,86,0.00,,,0.01,Wunderground v.1.15,2013-02-06 01:26:00,
2013-02-05 19:32:00,29.7,26.0,30.02,WNW,295,3.0,3.0,86,0.00,,,0.01,Wunderground v.1.15,2013-02-06 01:32:00,
2013-02-05 19:38:00,29.7,26.0,30.02,WNW,297,3.0,4.0,86,0.00,,,0.01,Wunderground v.1.15,2013-02-06 01:38:00,
2013-02-05 19:44:00,29.7,26.3,30.02,WNW,302,3.0,4.0,87,0.00,,,0.01,Wunderground v.1.15,2013-02-06 01:44:00,
2013-02-05 19:50:00,29.7,26.0,30.02,WNW,300,3.0,4.0,86,0.00,,,0.01,Wunderground v.1.15,2013-02-06 01:50:00,
2013-02-05 19:56:00,29.7,26.0,30.02,WNW,299,4.0,4.0,86,0.00,,,0.01,Wunderground v.1.15,2013-02-06 01:56:00,
2013-02-05 20:02:00,29.8,26.1,30.02,WNW,292,3.0,4.0,86,0.00,,,0.01,Wunderground v.1.15,2013-02-06 02:02:00,
2013-02-05 20:08:00,29.8,26.1,30.03,WNW,298,4.0,5.0,86,0.00,,,0.01,Wunderground v.1.15,2013-02-06 02:08:00,
2013-02-05 20:14:00,29.9,26.2,30.03,WNW,297,3.0,4.0,86,0.00,,,0.01,Wunderground v.1.15,2013-02-06 02:14:00,
2013-02-05 20:20:00,30.0,26.3,30.03,WNW,290,4.0,5.0,86,0.00,,,0.01,Wunderground v.1.15,2013-02-06 02:20:00,
2013-02-05 20:26:00,30.1,26.4,30.03,WNW,289,5.0,6.0,86,0.00,,,0.01,Wunderground v.1.15,2013-02-06 02:26:00,
2013-02-05 20:32:00,30.2,26.5,30.03,WNW,284,5.0,6.0,86,0.00,,,0.01,Wunderground v.1.15,2013-02-06 02:32:00,
2013-02-05 20:38:00,30.1,26.4,30.04,WNW,296,3.0,6.0,86,0.00,,,0.01,Wunderground v.1.15,2013-02-06 02:38:00,
2013-02-05 20:44:00,30.2,26.2,30.03,WNW,295,3.0,4.0,85,0.00,,,0.01,Wunderground v.1.15,2013-02-06 02:44:00,
2013-02-05 20:50:00,30.5,26.2,30.04,WNW,288,4.0,6.0,84,0.00,,,0.01,Wunderground v.1.15,2013-02-06 02:50:00,
2013-02-05 20:56:00,30.6,26.3,30.04,WNW,303,6.0,7.0,84,0.00,,,0.01,Wunderground v.1.15,2013-02-06 02:56:00,
2013-02-05 21:02:00,30.6,26.3,30.04,WNW,286,5.0,5.0,84,0.00,,,0.01,Wunderground v.1.15,2013-02-06 03:02:00,
2013-02-05 21:08:00,30.6,26.3,30.05,WNW,292,5.0,6.0,84,0.00,,,0.01,Wunderground v.1.15,2013-02-06 03:08:00,
2013-02-05 21:14:00,30.6,26.3,30.05,WNW,294,4.0,5.0,84,0.00,,,0.01,Wunderground v.1.15,2013-02-06 03:14:00,
2013-02-05 21:20:00,30.7,26.4,30.05,WNW,294,4.0,4.0,84,0.00,,,0.01,Wunderground v.1.15,2013-02-06 03:20:00,
2013-02-05 21:26:00,30.7,26.4,30.05,WNW,298,4.0,6.0,84,0.00,,,0.01,Wunderground v.1.15,2013-02-06 03:26:00,
2013-02-05 21:32:00,30.7,26.4,30.05,WNW,296,5.0,7.0,84,0.00,,,0.01,Wunderground v.1.15,2013-02-06 03:32:00,
2013-02-05 21:38:00,30.9,26.3,30.06,WNW,286,6.0,9.0,83,0.00,,,0.01,Wunderground v.1.15,2013-02-06 03:38:00,
2013-02-05 21:44:00,30.8,26.2,30.06,WNW,296,6.0,6.0,83,0.00,,,0.01,Wunderground v.1.15,2013-02-06 03:44:00,
2013-02-05 21:50:00,30.8,25.7,30.06,WNW,302,5.0,10.0,81,0.00,,,0.01,Wunderground v.1.15,2013-02-06 03:50:00,
2013-02-05 21:56:00,30.9,25.2,30.06,WNW,284,7.0,10.0,79,0.00,,,0.01,Wunderground v.1.15,2013-02-06 03:56:00,
2013-02-05 22:02:00,30.9,25.2,30.06,NW,305,7.0,7.0,79,0.00,,,0.01,Wunderground v.1.15,2013-02-06 04:02:00,
2013-02-05 22:08:00,30.8,25.4,30.06,WNW,296,6.0,9.0,80,0.00,,,0.01,Wunderground v.1.15,2013-02-06 04:08:00,
2013-02-05 22:14:00,30.6,25.2,30.06,WNW,298,7.0,7.0,80,0.00,,,0.01,Wunderground v.1.15,2013-02-06 04:14:00,
2013-02-05 22:20:00,30.6,25.2,30.06,WNW,285,7.0,8.0,80,0.00,,,0.01,Wunderground v.1.15,2013-02-06 04:20:00,
2013-02-05 22:26:00,30.6,25.2,30.06,WNW,299,7.0,7.0,80,0.00,,,0.01,Wunderground v.1.15,2013-02-06 04:26:00,
2013-02-05 22:32:00,30.6,25.2,30.07,WNW,294,6.0,6.0,80,0.00,,,0.01,Wunderground v.1.15,2013-02-06 04:32:00,
2013-02-05 22:38:00,30.5,25.1,30.07,WNW,295,6.0,7.0,80,0.00,,,0.01,Wunderground v.1.15,2013-02-06 04:38:00,
2013-02-05 22:44:00,30.5,24.8,30.07,WNW,292,6.0,8.0,79,0.00,,,0.01,Wunderground v.1.15,2013-02-06 04:44:00,
2013-02-05 22:50:00,30.5,24.8,30.07,WNW,288,7.0,8.0,79,0.00,,,0.01,Wunderground v.1.15,2013-02-06 04:50:00,
2013-02-05 22:56:00,30.5,24.8,30.07,WNW,294,7.0,7.0,79,0.00,,,0.01,Wunderground v.1.15,2013-02-06 04:56:00,
2013-02-05 23:02:00,30.5,24.5,30.08,WNW,294,7.0,7.0,78,0.00,,,0.01,Wunderground v.1.15,2013-02-06 05:02:00,
2013-02-05 23:04:00,30.4,24.7,30.08,WNW,292,7.0,7.0,79,0.00,,,0.01,Wunderground v.1.15,2013-02-06 05:04:00,
2013-02-05 23:06:00,30.4,24.7,30.08,WNW,303,7.0,8.0,79,0.00,,,0.01,Wunderground v.1.15,2013-02-06 05:06:00,
2013-02-05 23:12:00,30.5,24.1,30.08,WNW,295,8.0,11.0,77,0.00,,,0.01,Wunderground v.1.15,2013-02-06 05:12:00,
2013-02-05 23:18:00,30.5,24.1,30.09,WNW,284,8.0,11.0,77,0.00,,,0.01,Wunderground v.1.15,2013-02-06 05:18:00,
2013-02-05 23:24:00,30.5,24.5,30.09,WNW,285,8.0,8.0,78,0.00,,,0.01,Wunderground v.1.15,2013-02-06 05:24:00,
2013-02-05 23:30:00,30.3,24.6,30.10,West,278,7.0,8.0,79,0.00,,,0.01,Wunderground v.1.15,2013-02-06 05:30:00,
2013-02-05 23:36:00,30.2,24.8,30.10,WNW,282,7.0,8.0,80,0.00,,,0.01,Wunderground v.1.15,2013-02-06 05:36:00,
2013-02-05 23:42:00,30.0,24.9,30.10,West,275,7.0,8.0,81,0.00,,,0.01,Wunderground v.1.15,2013-02-06 05:42:00,
2013-02-05 23:48:00,30.1,25.0,30.10,WNW,287,6.0,8.0,81,0.00,,,0.01,Wunderground v.1.15,2013-02-06 05:48:00,
2013-02-05 23:54:00,30.0,24.9,30.11,WNW,282,5.0,6.0,81,0.00,,,0.01,Wunderground v.1.15,2013-02-06 05:54:00,